Location: Unspecified
(0.0000°N, 0.0000°E)
Time: 09:31:34
(UTC+00:00)

Amateur Radio Satellites - All Passes

Search period start: 24 October 2017 09:01
Search period end: 25 October 2017 09:01
Location: Unspecified, 0.0000°N, 0.0000°E

Satellite Date Start Highest point End Downlink Frequencies (MHz)
Time Altitude Azimuth
AO-73 24 Oct 09:04:50 09:06:08 11° 282° (WNW) 09:07:25 145.935
BEESAT 2 24 Oct 09:37:11 09:41:00 53° 111° (ESE) 09:44:51 435.950
PRISM 24 Oct 09:43:09 09:46:58 40° 78° (ENE) 09:50:45 437.425
BEESAT 3 24 Oct 09:44:44 09:47:39 20° 292° (WNW) 09:50:37 437.485
UNISAT 6 24 Oct 09:54:47 09:59:05 42° 258° (WSW) 10:03:27 437.425
EO-88 24 Oct 10:02:49 10:06:06 33° 281° (W) 10:09:23 145.990 - 145.960
AO-85 24 Oct 10:06:01 10:10:05 75° 113° (ESE) 10:13:58 145.980
TIGRISAT 24 Oct 10:08:40 10:12:40 31° 259° (WSW) 10:16:44 435.000
JUGNU 24 Oct 10:17:36 10:23:11 46° 20° (NNE) 10:28:47 437.505
AIST 2D 24 Oct 10:18:05 10:20:41 19° 79° (E) 10:23:17 435.315
RS-15 24 Oct 10:23:39 10:34:56 84° 250° (WSW) 10:45:50 29.354- 29.394
Max Valier Satellite 24 Oct 10:24:49 10:25:37 11° 281° (W) 10:26:25 145.860
NO-84 24 Oct 10:33:21 10:36:19 33° 57° (ENE) 10:39:06 435.350 FM
LO-87 24 Oct 10:38:32 10:42:00 49° 101° (ESE) 10:45:28 145.935 - 145.965
ESTCUBE 1 24 Oct 10:59:38 11:04:04 63° 102° (ESE) 11:08:32 437.505/2401.250
SRMSAT 24 Oct 11:00:58 11:04:41 17° 14° (NNE) 11:08:23 437.500
EO-79 24 Oct 11:34:54 11:39:09 85° 79° (ENE) 11:43:24 145.935-145.965
POLYITAN 1 24 Oct 11:40:51 11:45:07 79° 259° (W) 11:49:23 437.675
BUGSAT 1 24 Oct 12:00:01 12:03:11 21° 78° (ENE) 12:06:22 437.445
NANOSAT C BR1 24 Oct 12:00:23 12:04:26 46° 258° (WSW) 12:08:30 145.865
QB50P2 24 Oct 12:01:54 12:05:44 33° 258° (WSW) 12:09:33 145.880/145.840
JUGNU 24 Oct 12:06:26 12:12:13 63° 201° (SSW) 12:18:02 437.505
VELOX 1 24 Oct 12:06:49 12:11:09 54° 102° (ESE) 12:15:30 145.980
DUCHIFAT 1 24 Oct 12:08:41 12:12:41 41° 258° (WSW) 12:16:40 145.980
Gurwin Techsat 1B 24 Oct 12:21:42 12:23:30 12° 77° (ENE) 12:25:19 435.225
SPROUT 24 Oct 12:25:02 12:29:07 46° 282° (WNW) 12:33:11 437.525
SRMSAT 24 Oct 12:48:48 12:54:17 38° 20° (NNE) 12:59:48 437.500
Oscar 19 24 Oct 12:51:53 12:56:53 48° 78° (ENE) 13:01:50 437.125/150
DX 1 24 Oct 12:59:19 13:03:31 46° 102° (ESE) 13:07:43 434.975-435.025
UKube-1 24 Oct 13:14:15 13:18:19 41° 102° (ESE) 13:22:23 .
50 SAT 24 Oct 13:23:24 13:26:30 40° 281° (W) 13:29:37 437.505
BUGSAT 1 24 Oct 13:36:07 13:38:16 14° 258° (WSW) 13:40:25 437.445
AO-7 24 Oct 13:56:40 14:02:24 21° 73° (ENE) 14:08:05 .
JUGNU 24 Oct 13:56:44 14:01:25 24° 197° (SSW) 14:06:09 437.505
Gurwin Techsat 1B 24 Oct 13:58:09 14:03:10 43° 257° (WSW) 14:08:09 435.225
M-CUBED/EXP-1 PRIME 24 Oct 13:58:46 14:01:41 22° 253° (WSW) 14:04:28 437.505
ITUPSAT 1 24 Oct 14:28:10 14:32:17 30° 102° (ESE) 14:36:25 437.325
SRMSAT 24 Oct 14:37:33 14:43:32 79° 201° (SSW) 14:49:33 437.500
BEESAT 24 Oct 14:40:14 14:44:45 45° 102° (ESE) 14:49:16 436.000
MOZHAYETS 4 24 Oct 14:53:41 14:58:12 84° 100° (E) 15:02:46
ITAMSAT 1 24 Oct 15:13:07 15:18:17 71° 77° (ENE) 15:23:25 435.822/435.867
SO-50 24 Oct 15:16:19 15:20:44 41° 68° (ENE) 15:25:12 436.795
CUBESAT XI-V 24 Oct 15:17:30 15:21:11 24° 102° (ESE) 15:24:55 437.345
AO-7 24 Oct 15:46:47 15:54:47 52° 254° (WSW) 16:02:45 .
JUGNU 24 Oct 15:48:49 15:51:09 12° 189° (S) 15:53:29 437.505
KKS-1 24 Oct 15:51:10 15:52:58 12° 103° (ESE) 15:54:47 437.445
DOVE 4 24 Oct 15:52:59 15:54:15 11° 78° (ENE) 15:55:30 437.250
ITUPSAT 1 24 Oct 16:07:28 16:09:50 14° 283° (WNW) 16:12:12 437.325
SRMSAT 24 Oct 16:27:41 16:32:52 30° 198° (SSW) 16:38:03 437.500
ISS 24 Oct 16:42:38 16:45:26 26° 55° (NE) 16:48:15 437.550
PCSat 24 Oct 16:43:12 16:47:37 26° 70° (ENE) 16:52:04 145.827
CUBESAT XI-V 24 Oct 16:55:25 16:58:17 16° 282° (WNW) 17:01:09 437.345
XW-2B 24 Oct 17:00:17 17:02:33 15° 79° (E) 17:04:47 145.730 - 145.750
SO-50 24 Oct 17:00:41 17:01:00 10° 247° (WSW) 17:01:18 436.795
O/OREOS (USA 219) 24 Oct 17:16:41 17:18:59 14° 105° (ESE) 17:21:17 437.305
XW-2C 24 Oct 17:22:32 17:26:03 35° 79° (E) 17:29:33 145.795 - 145.815
KKS-1 24 Oct 17:25:23 17:29:14 29° 282° (WNW) 17:33:06 437.445
DOVE 4 24 Oct 17:28:18 17:31:41 24° 258° (WSW) 17:35:03 437.250
nSIGHT-1 24 Oct 17:34:14 17:37:06 30° 234° (SW) 17:39:58 .
STARS 24 Oct 17:44:42 17:48:58 49° 282° (WNW) 17:53:14 437.465
KAITUO 1B 24 Oct 17:53:12 17:56:58 78° 78° (ENE) 18:00:41 145.475/437.950
CUTE-I 24 Oct 17:54:20 17:59:38 76° 77° (ENE) 18:04:56 437.470
NUDT-PHONESAT 24 Oct 17:59:37 18:03:23 86° 256° (WSW) 18:07:06 437.300
STRAND 1 24 Oct 17:59:55 18:01:10 11° 103° (ESE) 18:02:24 437.568
XW-2F 24 Oct 18:03:02 18:06:44 49° 259° (W) 18:10:24 145.980 - 146.000
SEEDS 24 Oct 18:16:33 18:19:07 16° 79° (ENE) 18:21:38 437.485
CUTE 1.7 + AOD 2 24 Oct 18:17:13 18:21:00 31° 79° (ENE) 18:24:45 437.475
LilacSat-2 24 Oct 18:18:40 18:21:48 24° 258° (WSW) 18:24:55 437.200
SRMSAT 24 Oct 18:19:33 18:22:40 14° 191° (S) 18:25:47 437.500
XW-2D 24 Oct 18:19:44 18:22:51 24° 259° (WSW) 18:25:57 145.860 - 145.880
PCSat 24 Oct 18:26:49 18:30:45 20° 250° (WSW) 18:34:40 145.827
CUBEBUG 2 24 Oct 18:29:11 18:32:52 24° 78° (ENE) 18:36:37 437.445
HO-68 24 Oct 18:32:03 18:39:05 60° 76° (ENE) 18:46:05 435.675
XW-2B 24 Oct 18:34:05 18:36:27 16° 258° (WSW) 18:38:49 145.730 - 145.750
O/OREOS (USA 219) 24 Oct 18:54:25 18:58:06 25° 285° (WNW) 19:01:48 437.305
UWE-3 24 Oct 18:57:15 19:01:12 29° 78° (ENE) 19:05:12 435.000/436.395/437.385
JUGNU 24 Oct 19:28:14 19:31:27 15° 168° (SSE) 19:34:39 437.505
AO-73 24 Oct 19:35:13 19:39:24 37° 79° (ENE) 19:43:36 145.935
STRAND 1 24 Oct 19:35:13 19:40:02 43° 282° (WNW) 19:44:53 437.568
YUBILEINY 24 Oct 19:37:06 19:45:29 48° 87° (E) 19:53:51 435.215
FO-29 24 Oct 19:44:07 19:51:00 35° 103° (ESE) 19:57:51 435.910
SEEDS 24 Oct 19:51:30 19:54:31 19° 258° (WSW) 19:57:31 437.485
XW-2A 24 Oct 19:54:39 19:57:29 24° 259° (WSW) 20:00:17 145.665 - 145.685
ZACube-1 24 Oct 19:59:48 20:04:21 82° 258° (WSW) 20:08:55 437.345
BEESAT 3 24 Oct 20:00:07 20:01:50 13° 68° (ENE) 20:03:33 437.485
AAUSAT CUBESAT 2 24 Oct 20:00:14 20:04:06 39° 259° (WSW) 20:07:56 437.432
RS-15 24 Oct 20:01:13 20:03:49 11° 113° (ESE) 20:06:24 29.354- 29.394
CUBEBUG 2 24 Oct 20:06:29 20:09:13 16° 259° (W) 20:11:58 437.445
HO-68 24 Oct 20:23:05 20:26:26 14° 255° (WSW) 20:29:46 435.675
Oscar 11 24 Oct 20:28:36 20:32:53 60° 258° (WSW) 20:37:09 .
UNISAT 6 24 Oct 20:34:08 20:35:58 12° 102° (ESE) 20:37:47 437.425
UWE-3 24 Oct 20:35:17 20:37:22 13° 259° (WSW) 20:39:29 435.000/436.395/437.385
Max Valier Satellite 24 Oct 20:40:47 20:42:54 15° 79° (E) 20:45:01 145.860
DELFI C3 24 Oct 20:44:46 20:48:07 27° 79° (ENE) 20:51:26 145.870
TIGRISAT 24 Oct 20:46:34 20:49:25 17° 102° (ESE) 20:52:13 435.000
JUGNU 24 Oct 21:15:47 21:21:03 31° 161° (SSE) 21:26:18 437.505
FO-29 24 Oct 21:28:58 21:35:36 32° 283° (WNW) 21:42:20 435.910
BEESAT 2 24 Oct 21:29:59 21:33:50 55° 68° (ENE) 21:37:38 435.950
YUBILEINY 24 Oct 21:35:42 21:41:52 21° 267° (W) 21:48:06 435.215
BEESAT 3 24 Oct 21:36:19 21:39:06 19° 248° (WSW) 21:41:52 437.485
PRISM 24 Oct 21:45:18 21:49:16 44° 102° (ESE) 21:53:14 437.425
EO-88 24 Oct 21:52:05 21:55:38 51° 259° (WSW) 21:59:11 145.990 - 145.960
SRMSAT 24 Oct 22:00:38 22:03:20 13° 170° (S) 22:06:01 437.500
RS-15 24 Oct 22:04:11 22:16:05 83° 110° (ESE) 22:28:24 29.354- 29.394
AIST 2D 24 Oct 22:05:09 22:06:15 11° 101° (ESE) 22:07:21 435.315
UNISAT 6 24 Oct 22:08:45 22:12:25 26° 282° (WNW) 22:16:02 437.425
Max Valier Satellite 24 Oct 22:14:09 22:16:26 16° 258° (WSW) 22:18:44 145.860
NO-84 24 Oct 22:14:34 22:18:03 32° 121° (ESE) 22:21:43 435.350 FM
AO-85 24 Oct 22:16:54 22:21:57 61° 248° (WSW) 22:27:12 145.980
TIGRISAT 24 Oct 22:22:43 22:25:50 19° 282° (WNW) 22:28:55 435.000
LO-87 24 Oct 22:26:26 22:29:36 30° 79° (E) 22:32:46 145.935 - 145.965
QB50P2 24 Oct 22:34:59 22:36:20 11° 102° (ESE) 22:37:41 145.880/145.840
JUGNU 24 Oct 23:04:11 23:10:13 83° 158° (SSE) 23:16:13 437.505
ESTCUBE 1 24 Oct 23:13:38 23:18:10 81° 260° (W) 23:22:38 437.505/2401.250
AIST 2D 24 Oct 23:36:54 23:39:09 16° 281° (W) 23:41:25 435.315
EO-79 24 Oct 23:40:51 23:45:02 79° 283° (WNW) 23:49:15 145.935-145.965
POLYITAN 1 24 Oct 23:47:03 23:51:12 63° 281° (W) 23:55:20 437.675
SRMSAT 24 Oct 23:48:16 23:53:13 26° 162° (SSE) 23:58:07 437.500
NO-84 24 Oct 23:53:49 23:55:19 12° 304° (NW) 23:56:51 435.350 FM
BUGSAT 1 25 Oct 00:02:53 00:06:09 23° 102° (ESE) 00:09:24 437.445
NANOSAT C BR1 25 Oct 00:06:03 00:09:57 37° 282° (WNW) 00:13:49 145.865
QB50P2 25 Oct 00:08:18 00:11:50 26° 282° (WNW) 00:15:23 145.880/145.840
DUCHIFAT 1 25 Oct 00:14:03 00:17:51 34° 282° (WNW) 00:21:38 145.980
VELOX 1 25 Oct 00:18:13 00:22:36 79° 77° (ENE) 00:26:57 145.980
RS-15 25 Oct 00:22:16 00:28:30 15° 294° (WNW) 00:34:52 29.354- 29.394
M-CUBED/EXP-1 PRIME 25 Oct 00:23:52 00:25:31 12° 108° (ESE) 00:27:12 437.505
SPROUT 25 Oct 00:32:06 00:36:01 36° 258° (WSW) 00:39:57 437.525
JUGNU 25 Oct 00:53:51 00:59:19 36° 340° (NNW) 01:04:47 437.505
Gurwin Techsat 1B 25 Oct 00:57:06 01:01:53 35° 103° (ESE) 01:06:41 435.225
50 SAT 25 Oct 01:02:36 01:05:51 75° 77° (ENE) 01:09:03 437.505
DX 1 25 Oct 01:08:48 01:13:05 64° 78° (ENE) 01:17:21 434.975-435.025
UKube-1 25 Oct 01:22:27 01:26:38 54° 78° (ENE) 01:30:50 .
Oscar 19 25 Oct 01:25:21 01:30:24 65° 283° (WNW) 01:35:30 437.125/150
SRMSAT 25 Oct 01:36:38 01:42:34 68° 159° (SSE) 01:48:29 437.500
BUGSAT 1 25 Oct 01:39:32 01:41:13 12° 282° (WNW) 01:42:54 437.445
M-CUBED/EXP-1 PRIME 25 Oct 01:55:53 01:59:32 30° 284° (WNW) 02:03:24 437.505
ITAMSAT 1 25 Oct 02:12:30 02:14:03 11° 103° (ESE) 02:15:36 435.822/435.867
AO-7 25 Oct 02:21:17 02:28:36 35° 107° (ESE) 02:35:56 .
Gurwin Techsat 1B 25 Oct 02:38:38 02:41:33 15° 283° (WNW) 02:44:27 435.225
JUGNU 25 Oct 02:45:11 02:48:48 16° 347° (NNW) 02:52:25 437.505
ITUPSAT 1 25 Oct 02:49:46 02:54:30 59° 78° (ENE) 02:59:13 437.325
BEESAT 25 Oct 03:01:47 03:06:34 88° 85° (E) 03:11:21 436.000
MOZHAYETS 4 25 Oct 03:10:20 03:14:53 57° 258° (WSW) 03:19:26
SRMSAT 25 Oct 03:26:10 03:31:48 44° 340° (NNW) 03:37:24 437.500
SO-50 25 Oct 03:28:58 03:33:30 77° 112° (ESE) 03:37:58 436.795
CUBESAT XI-V 25 Oct 03:35:06 03:39:30 42° 79° (ENE) 03:43:51 437.345
ITAMSAT 1 25 Oct 03:48:17 03:53:12 43° 283° (WNW) 03:58:08 435.822/435.867
KKS-1 25 Oct 04:02:21 04:05:20 18° 78° (ENE) 04:08:18 437.445
DOVE 4 25 Oct 04:10:10 04:14:44 30° 102° (ESE) 04:19:16 437.250
AO-7 25 Oct 04:13:54 04:21:00 32° 286° (WNW) 04:28:08 .
ISS 25 Oct 04:17:12 04:19:21 16° 126° (SE) 04:21:30 437.550
XW-2B 25 Oct 04:54:33 04:55:54 12° 102° (ESE) 04:57:15 145.730 - 145.750
CUTE-I 25 Oct 04:56:20 04:59:08 14° 103° (ESE) 05:01:55 437.470
nSIGHT-1 25 Oct 05:06:27 05:09:36 55° 305° (NW) 05:12:43 .
XW-2C 25 Oct 05:16:12 05:19:25 27° 101° (ESE) 05:22:40 145.795 - 145.815
SRMSAT 25 Oct 05:17:19 05:21:19 18° 345° (NNW) 05:25:19 437.500
PCSat 25 Oct 05:18:22 05:23:47 82° 109° (ESE) 05:29:11 145.827
O/OREOS (USA 219) 25 Oct 05:26:24 05:30:01 23° 75° (ENE) 05:33:37 437.305
KKS-1 25 Oct 05:38:26 05:41:37 20° 258° (WSW) 05:44:47 437.445
KAITUO 1B 25 Oct 05:45:11 05:48:47 55° 101° (E) 05:52:27 145.475/437.950
DOVE 4 25 Oct 05:48:33 05:52:05 18° 282° (WNW) 05:55:36 437.250
NUDT-PHONESAT 25 Oct 05:50:39 05:54:16 64° 101° (ESE) 05:57:55 437.300
ISS 25 Oct 05:53:45 05:55:37 14° 306° (NW) 05:57:27 437.550
STARS 25 Oct 05:55:41 05:59:38 34° 258° (WSW) 06:03:37 437.465
XW-2F 25 Oct 05:55:52 05:59:34 66° 281° (W) 06:03:17 145.980 - 146.000
LilacSat-2 25 Oct 06:12:37 06:15:53 28° 281° (W) 06:19:11 437.200
XW-2D 25 Oct 06:12:53 06:16:09 29° 281° (W) 06:19:29 145.860 - 145.880
SEEDS 25 Oct 06:21:04 06:24:01 19° 102° (ESE) 06:26:59 437.485
CUTE 1.7 + AOD 2 25 Oct 06:23:08 06:27:02 38° 102° (ESE) 06:31:00 437.475
HO-68 25 Oct 06:23:44 06:30:37 50° 104° (ESE) 06:37:31 435.675
XW-2B 25 Oct 06:27:03 06:29:48 19° 281° (W) 06:32:33 145.730 - 145.750
JUGNU 25 Oct 06:27:23 06:29:02 11° 7° (N) 06:30:41 437.505
STRAND 1 25 Oct 06:29:21 06:33:42 28° 77° (ENE) 06:38:02 437.568
CUTE-I 25 Oct 06:33:59 06:38:52 37° 283° (WNW) 06:43:47 437.470
CUBEBUG 2 25 Oct 06:41:29 06:45:23 33° 101° (E) 06:49:12 437.445
O/OREOS (USA 219) 25 Oct 07:06:38 07:09:08 15° 255° (WSW) 07:11:38 437.305
UWE-3 25 Oct 07:08:26 07:12:22 38° 101° (E) 07:16:15 435.000/436.395/437.385
SRMSAT 25 Oct 07:10:26 07:11:24 10° 355° (N) 07:12:21 437.500
XW-2A 25 Oct 07:36:24 07:39:36 49° 281° (W) 07:42:51 145.665 - 145.685
AO-73 25 Oct 07:44:45 07:48:45 48° 102° (ESE) 07:52:43 145.935
BEESAT 3 25 Oct 07:51:11 07:53:04 13° 112° (ESE) 07:54:56 437.485
SEEDS 25 Oct 07:56:46 07:59:25 17° 281° (WNW) 08:02:06 437.485
AAUSAT CUBESAT 2 25 Oct 08:03:27 08:07:14 36° 281° (WNW) 08:11:05 437.432
STRAND 1 25 Oct 08:09:20 08:12:36 17° 257° (WSW) 08:15:52 437.568
ZACube-1 25 Oct 08:10:00 08:14:05 56° 281° (W) 08:18:09 437.345
YUBILEINY 25 Oct 08:10:19 08:19:03 90° 97° (E) 08:27:44 435.215
HO-68 25 Oct 08:13:38 08:17:59 17° 285° (WNW) 08:22:22 435.675
JUGNU 25 Oct 08:14:31 08:18:52 21° 16° (NNE) 08:23:10 437.505
Oscar 11 25 Oct 08:37:20 08:41:24 44° 281° (WNW) 08:45:31 .
DELFI C3 25 Oct 08:42:36 08:45:57 26° 102° (ESE) 08:49:18 145.870
UNISAT 6 25 Oct 08:45:31 08:48:54 20° 78° (ENE) 08:52:19 437.425
AO-85 25 Oct 08:54:17 08:54:50 10° 114° (ESE) 08:55:23 145.980
